• In Deutschland
  • Länderverzeichnis
  • Für 7 Tage
  • Wassertemperatur
  • Satellitenkarten
  • Wetterkarte
  • Widgets
  • user-avatar
    Anmelden

    Stündliche Wetter Stepanakert

    Heute, 17 August, Donnerstag

    Zeit Temperatur Niederschläge Wind Luftdruck Luftfeuchtigkeit
    00:00 +22°C° 0 mm 1 m/S 693 mmHg 54%
    01:00 +21°C° 0 mm 2 m/S 693 mmHg 55%
    02:00 +20°C° 0 mm 2 m/S 692 mmHg 57%
    03:00 +20°C° 0 mm 2 m/S 692 mmHg 60%
    04:00 +21°C° 0 mm 1 m/S 692 mmHg 59%
    05:00 +21°C° 0 mm 1 m/S 692 mmHg 58%
    06:00 +21°C° 0 mm 1 m/S 692 mmHg 57%
    07:00 +24°C° 0 mm 1 m/S 693 mmHg 51%
    08:00 +26°C° 0 mm 2 m/S 693 mmHg 44%
    09:00 +28°C° 0 mm 2 m/S 694 mmHg 35%
    10:00 +29°C° 0 mm 2 m/S 693 mmHg 33%
    11:00 +30°C° 0 mm 3 m/S 693 mmHg 32%
    12:00 +31°C° 0 mm 3 m/S 693 mmHg 30%
    13:00 +33°C° 0 mm 3 m/S 693 mmHg 30%
    14:00 +33°C° 0 mm 4 m/S 693 mmHg 30%
    15:00 +33°C° 0 mm 4 m/S 692 mmHg 30%
    16:00 +32°C° 0,1 mm 4 m/S 692 mmHg 33%
    17:00 +32°C° 0,1 mm 4 m/S 692 mmHg 35%
    18:00 +30°C° 0,1 mm 3 m/S 692 mmHg 38%
    19:00 +28°C° 0 mm 3 m/S 692 mmHg 43%
    20:00 +26°C° 0 mm 2 m/S 692 mmHg 49%
    21:00 +24°C° 0 mm 2 m/S 692 mmHg 54%
    22:00 +23°C° 0 mm 2 m/S 692 mmHg 56%
    23:00 +23°C° 0 mm 2 m/S 692 mmHg 58%

    Morgen, 18 August, Freitag

    Zeit Temperatur Niederschläge Wind Luftdruck Luftfeuchtigkeit
    00:00 +21°C° 0 mm 2 m/S 692 mmHg 60%
    01:00 +21°C° 0 mm 2 m/S 692 mmHg 60%
    02:00 +20°C° 0 mm 2 m/S 692 mmHg 61%
    03:00 +20°C° 0 mm 2 m/S 692 mmHg 61%
    04:00 +20°C° 0 mm 2 m/S 692 mmHg 59%
    05:00 +21°C° 0 mm 2 m/S 692 mmHg 57%
    06:00 +21°C° 0 mm 2 m/S 692 mmHg 55%
    07:00 +24°C° 0 mm 2 m/S 692 mmHg 49%
    08:00 +26°C° 0 mm 2 m/S 693 mmHg 42%
    09:00 +28°C° 0 mm 2 m/S 693 mmHg 36%
    10:00 +29°C° 0 mm 3 m/S 693 mmHg 33%
    11:00 +30°C° 0 mm 3 m/S 693 mmHg 31%
    12:00 +33°C° 0 mm 3 m/S 693 mmHg 28%
    13:00 +33°C° 0 mm 3 m/S 693 mmHg 28%
    14:00 +33°C° 0 mm 3 m/S 693 mmHg 27%
    15:00 +34°C° 0 mm 3 m/S 692 mmHg 27%
    16:00 +33°C° 0 mm 3 m/S 692 mmHg 28%
    17:00 +31°C° 0 mm 3 m/S 692 mmHg 30%
    18:00 +30°C° 0 mm 3 m/S 692 mmHg 32%
    19:00 +28°C° 0 mm 2 m/S 693 mmHg 36%
    20:00 +26°C° 0 mm 2 m/S 693 mmHg 41%
    21:00 +24°C° 0 mm 2 m/S 693 mmHg 45%
    22:00 +24°C° 0 mm 2 m/S 693 mmHg 46%
    23:00 +23°C° 0 mm 2 m/S 693 mmHg 48%

    übermorgen, 19 August, Samstag

    Zeit Temperatur Niederschläge Wind Luftdruck Luftfeuchtigkeit
    00:00 +21°C° 0 mm 2 m/S 693 mmHg 50%
    01:00 +21°C° 0 mm 2 m/S 693 mmHg 50%
    02:00 +21°C° 0 mm 2 m/S 693 mmHg 51%
    03:00 +20°C° 0 mm 2 m/S 693 mmHg 52%
    04:00 +21°C° 0 mm 2 m/S 694 mmHg 51%
    05:00 +21°C° 0 mm 2 m/S 694 mmHg 51%
    06:00 +21°C° 0 mm 2 m/S 694 mmHg 50%
    07:00 +24°C° 0 mm 2 m/S 694 mmHg 43%
    08:00 +27°C° 0 mm 2 m/S 695 mmHg 36%
    09:00 +29°C° 0 mm 2 m/S 695 mmHg 29%
    10:00 +30°C° 0 mm 2 m/S 695 mmHg 26%
    11:00 +31°C° 0 mm 3 m/S 695 mmHg 24%
    12:00 +33°C° 0 mm 3 m/S 695 mmHg 22%
    13:00 +34°C° 0 mm 3 m/S 695 mmHg 21%
    14:00 +34°C° 0 mm 4 m/S 695 mmHg 21%
    15:00 +35°C° 0 mm 4 m/S 695 mmHg 21%
    16:00 +33°C° 0 mm 4 m/S 694 mmHg 23%
    17:00 +32°C° 0 mm 4 m/S 694 mmHg 25%
    18:00 +30°C° 0 mm 4 m/S 694 mmHg 28%
    19:00 +28°C° 0 mm 3 m/S 694 mmHg 31%
    20:00 +26°C° 0 mm 2 m/S 695 mmHg 34%
    21:00 +24°C° 0 mm 2 m/S 695 mmHg 37%
    22:00 +23°C° 0 mm 2 m/S 695 mmHg 38%
    23:00 +23°C° 0 mm 2 m/S 695 mmHg 39%

    20 August, Sonntag

    Zeit Temperatur Niederschläge Wind Luftdruck Luftfeuchtigkeit
    00:00 +21°C° 0 mm 2 m/S 695 mmHg 40%
    01:00 +21°C° 0 mm 2 m/S 695 mmHg 39%
    02:00 +21°C° 0 mm 2 m/S 694 mmHg 38%
    03:00 +20°C° 0 mm 2 m/S 694 mmHg 38%
    04:00 +21°C° 0 mm 2 m/S 694 mmHg 37%
    05:00 +21°C° 0 mm 2 m/S 695 mmHg 36%
    06:00 +21°C° 0 mm 2 m/S 695 mmHg 35%
    07:00 +24°C° 0 mm 2 m/S 695 mmHg 31%
    08:00 +26°C° 0 mm 2 m/S 695 mmHg 27%
    09:00 +29°C° 0 mm 2 m/S 696 mmHg 23%
    10:00 +30°C° 0 mm 2 m/S 695 mmHg 22%
    11:00 +31°C° 0 mm 3 m/S 695 mmHg 20%
    12:00 +34°C° 0 mm 3 m/S 695 mmHg 18%
    13:00 +34°C° 0 mm 3 m/S 695 mmHg 19%
    14:00 +34°C° 0 mm 3 m/S 694 mmHg 19%
    15:00 +35°C° 0 mm 4 m/S 694 mmHg 19%
    16:00 +34°C° 0 mm 3 m/S 694 mmHg 21%
    17:00 +33°C° 0 mm 3 m/S 694 mmHg 23%
    18:00 +31°C° 0 mm 3 m/S 694 mmHg 25%
    19:00 +28°C° 0 mm 2 m/S 694 mmHg 29%
    20:00 +26°C° 0 mm 2 m/S 694 mmHg 33%
    21:00 +24°C° 0 mm 2 m/S 694 mmHg 37%
    22:00 +24°C° 0 mm 2 m/S 694 mmHg 38%
    23:00 +23°C° 0 mm 2 m/S 694 mmHg 39%

    21 August, Montag

    Zeit Temperatur Niederschläge Wind Luftdruck Luftfeuchtigkeit
    00:00 +23°C° 0 mm 2 m/S 694 mmHg 41%
    01:00 +23°C° 0 mm 2 m/S 694 mmHg 40%
    02:00 +21°C° 0 mm 2 m/S 693 mmHg 40%
    03:00 +21°C° 0 mm 2 m/S 693 mmHg 40%
    04:00 +21°C° 0 mm 2 m/S 693 mmHg 39%
    05:00 +21°C° 0 mm 2 m/S 693 mmHg 38%
    06:00 +21°C° 0 mm 2 m/S 693 mmHg 38%
    07:00 +25°C° 0 mm 2 m/S 694 mmHg 34%
    08:00 +27°C° 0 mm 2 m/S 694 mmHg 29%
    09:00 +30°C° 0 mm 2 m/S 694 mmHg 25%
    10:00 +31°C° 0 mm 2 m/S 694 mmHg 23%
    11:00 +33°C° 0 mm 3 m/S 694 mmHg 21%
    12:00 +34°C° 0 mm 3 m/S 693 mmHg 19%
    13:00 +35°C° 0 mm 3 m/S 693 mmHg 19%
    14:00 +35°C° 0 mm 3 m/S 693 mmHg 19%
    15:00 +36°C° 0 mm 3 m/S 692 mmHg 19%
    16:00 +34°C° 0 mm 3 m/S 692 mmHg 21%
    17:00 +32°C° 0 mm 2 m/S 692 mmHg 24%
    18:00 +31°C° 0 mm 2 m/S 692 mmHg 27%
    19:00 +29°C° 0 mm 2 m/S 692 mmHg 30%
    20:00 +27°C° 0 mm 2 m/S 692 mmHg 33%
    21:00 +25°C° 0 mm 2 m/S 692 mmHg 36%
    22:00 +25°C° 0 mm 2 m/S 692 mmHg 38%
    23:00 +24°C° 0 mm 2 m/S 692 mmHg 39%

    22 August, Dienstag

    Zeit Temperatur Niederschläge Wind Luftdruck Luftfeuchtigkeit
    00:00 +24°C° 0 mm 2 m/S 692 mmHg 40%
    01:00 +23°C° 0 mm 2 m/S 692 mmHg 40%
    02:00 +23°C° 0 mm 2 m/S 692 mmHg 40%
    03:00 +23°C° 0 mm 2 m/S 691 mmHg 40%
    04:00 +23°C° 0 mm 1 m/S 691 mmHg 40%
    05:00 +23°C° 0 mm 1 m/S 692 mmHg 40%
    06:00 +23°C° 0 mm 1 m/S 692 mmHg 40%
    07:00 +26°C° 0 mm 2 m/S 692 mmHg 36%
    08:00 +28°C° 0 mm 2 m/S 692 mmHg 32%
    09:00 +30°C° 0 mm 2 m/S 693 mmHg 27%
    10:00 +32°C° 0 mm 2 m/S 693 mmHg 26%
    11:00 +34°C° 0 mm 3 m/S 692 mmHg 24%
    12:00 +35°C° 0 mm 3 m/S 692 mmHg 22%
    13:00 +36°C° 0 mm 3 m/S 692 mmHg 22%
    14:00 +36°C° 0 mm 3 m/S 691 mmHg 22%
    15:00 +36°C° 0 mm 3 m/S 691 mmHg 22%
    16:00 +35°C° 0 mm 3 m/S 691 mmHg 24%
    17:00 +34°C° 0 mm 2 m/S 690 mmHg 27%
    18:00 +32°C° 0 mm 2 m/S 690 mmHg 29%
    19:00 +30°C° 0 mm 2 m/S 690 mmHg 33%
    20:00 +28°C° 0 mm 2 m/S 690 mmHg 36%
    21:00 +26°C° 0 mm 2 m/S 690 mmHg 39%
    22:00 +26°C° 0 mm 2 m/S 690 mmHg 41%
    23:00 +25°C° 0 mm 2 m/S 690 mmHg 42%
    Mehr zeigen